Time,TemperatureF,DewpointF,PressureIn,WindDirection,WindDirectionDegrees,WindSpeedMPH,WindSpeedGustMPH,Humidity,HourlyPrecipIn,Conditions,Clouds,dailyrainin,SolarRadiationWatts/m^2,SoftwareType,DateUTC
2013-10-03 00:02:00,64.0,63.0,-100.00,North,1,0.0,0.0,96,0.00,,,0.00,0.000000,,2013-10-03 04:02:00,
2013-10-03 00:44:00,64.0,63.0,-100.00,North,1,0.0,0.0,96,0.00,,,0.00,0.000000,,2013-10-03 04:44:00,
2013-10-03 00:53:00,64.0,63.0,-100.00,North,1,0.0,0.0,96,0.00,,,0.00,0.000000,,2013-10-03 04:53:00,
2013-10-03 01:02:00,64.0,63.0,-100.00,North,354,0.0,1.0,97,0.00,,,0.00,0.000000,,2013-10-03 05:02:00,
2013-10-03 01:23:00,64.0,63.0,-100.00,North,354,0.0,1.0,97,0.00,,,0.00,0.000000,,2013-10-03 05:23:00,
2013-10-03 01:33:00,64.0,63.0,-100.00,North,354,0.0,1.0,97,0.00,,,0.00,0.000000,,2013-10-03 05:33:00,
2013-10-03 01:43:00,64.0,63.0,-100.00,North,354,0.0,1.0,97,0.00,,,0.00,0.000000,,2013-10-03 05:43:00,
2013-10-03 01:52:00,64.0,63.0,-100.00,North,354,0.0,1.0,97,0.00,,,0.00,0.000000,,2013-10-03 05:52:00,
2013-10-03 02:02:00,63.0,62.0,-100.00,NNW,344,0.0,1.0,98,0.00,,,0.00,0.000000,,2013-10-03 06:02:00,
2013-10-03 02:22:00,63.0,62.0,-100.00,NNW,344,0.0,1.0,98,0.00,,,0.00,0.000000,,2013-10-03 06:22:00,
2013-10-03 02:32:00,63.0,62.0,-100.00,NNW,344,0.0,1.0,98,0.00,,,0.00,0.000000,,2013-10-03 06:32:00,
2013-10-03 02:42:00,63.0,62.0,-100.00,NNW,344,0.0,1.0,98,0.00,,,0.00,0.000000,,2013-10-03 06:42:00,
2013-10-03 02:52:00,63.0,62.0,-100.00,NNW,344,0.0,1.0,98,0.00,,,0.00,0.000000,,2013-10-03 06:52:00,
2013-10-03 03:02:00,62.0,62.0,-100.00,NNW,335,1.0,1.0,99,0.00,,,0.00,0.000000,,2013-10-03 07:02:00,
2013-10-03 03:22:00,62.0,62.0,-100.00,NNW,335,1.0,1.0,99,0.00,,,0.00,0.000000,,2013-10-03 07:22:00,
2013-10-03 03:32:00,62.0,62.0,-100.00,NNW,335,1.0,1.0,99,0.00,,,0.00,0.000000,,2013-10-03 07:32:00,
2013-10-03 03:42:00,62.0,62.0,-100.00,NNW,335,1.0,1.0,99,0.00,,,0.00,0.000000,,2013-10-03 07:42:00,
2013-10-03 03:52:00,62.0,62.0,-100.00,NNW,335,1.0,1.0,99,0.00,,,0.00,0.000000,,2013-10-03 07:52:00,
2013-10-03 04:02:00,62.0,61.0,-100.00,NNW,339,0.0,1.0,97,0.00,,,0.00,0.000000,,2013-10-03 08:02:00,
2013-10-03 04:22:00,62.0,61.0,-100.00,NNW,339,0.0,1.0,97,0.00,,,0.00,0.000000,,2013-10-03 08:22:00,
2013-10-03 04:32:00,62.0,61.0,-100.00,NNW,339,0.0,1.0,97,0.00,,,0.00,0.000000,,2013-10-03 08:32:00,
2013-10-03 04:42:00,62.0,61.0,-100.00,NNW,339,0.0,1.0,97,0.00,,,0.00,0.000000,,2013-10-03 08:42:00,
2013-10-03 04:52:00,62.0,61.0,-100.00,NNW,339,0.0,1.0,97,0.00,,,0.00,0.000000,,2013-10-03 08:52:00,
2013-10-03 05:02:00,62.0,61.0,-100.00,NE,48,0.0,0.0,98,0.00,,,0.00,0.000000,,2013-10-03 09:02:00,
2013-10-03 05:43:00,62.0,61.0,-100.00,NE,48,0.0,0.0,98,0.00,,,0.00,0.000000,,2013-10-03 09:43:00,
2013-10-03 05:53:00,62.0,61.0,-100.00,NE,48,0.0,0.0,98,0.00,,,0.00,0.000000,,2013-10-03 09:53:00,
2013-10-03 06:02:00,61.0,61.0,-100.00,ESE,103,0.0,0.0,99,0.00,,,0.00,0.000000,,2013-10-03 10:02:00,
2013-10-03 06:23:00,61.0,61.0,-100.00,ESE,103,0.0,0.0,99,0.00,,,0.00,0.000000,,2013-10-03 10:23:00,
2013-10-03 06:33:00,61.0,61.0,-100.00,ESE,103,0.0,0.0,99,0.00,,,0.00,0.000000,,2013-10-03 10:33:00,
2013-10-03 06:43:00,61.0,61.0,-100.00,ESE,103,0.0,0.0,99,0.00,,,0.00,0.000000,,2013-10-03 10:43:00,
2013-10-03 06:52:00,61.0,61.0,-100.00,ESE,103,0.0,0.0,99,0.00,,,0.00,0.000000,,2013-10-03 10:52:00,
2013-10-03 07:02:00,60.0,60.0,-100.00,NNW,347,0.0,0.0,100,0.00,,,0.00,0.000000,,2013-10-03 11:02:00,
2013-10-03 07:23:00,60.0,60.0,-100.00,NNW,347,0.0,0.0,100,0.00,,,0.00,0.000000,,2013-10-03 11:23:00,
2013-10-03 07:33:00,60.0,60.0,-100.00,NNW,347,0.0,0.0,100,0.00,,,0.00,0.000000,,2013-10-03 11:33:00,
2013-10-03 07:42:00,60.0,60.0,-100.00,NNW,347,0.0,0.0,100,0.00,,,0.00,0.000000,,2013-10-03 11:42:00,
2013-10-03 07:52:00,60.0,60.0,-100.00,NNW,347,0.0,0.0,100,0.00,,,0.00,0.000000,,2013-10-03 11:52:00,
2013-10-03 08:02:00,60.0,60.0,-100.00,South,171,0.0,0.0,99,0.00,,,0.00,10.000000,,2013-10-03 12:02:00,
2013-10-03 08:22:00,60.0,60.0,-100.00,South,171,0.0,0.0,99,0.00,,,0.00,10.000000,,2013-10-03 12:22:00,
2013-10-03 08:32:00,60.0,60.0,-100.00,South,171,0.0,0.0,99,0.00,,,0.00,10.000000,,2013-10-03 12:32:00,
2013-10-03 08:42:00,60.0,60.0,-100.00,South,171,0.0,0.0,99,0.00,,,0.00,10.000000,,2013-10-03 12:42:00,
2013-10-03 08:52:00,60.0,60.0,-100.00,South,171,0.0,0.0,99,0.00,,,0.00,10.000000,,2013-10-03 12:52:00,
2013-10-03 09:02:00,64.0,63.0,-100.00,North,359,0.0,0.0,96,0.00,,,0.00,71.000000,,2013-10-03 13:02:00,
2013-10-03 09:42:00,64.0,63.0,-100.00,North,359,0.0,0.0,96,0.00,,,0.00,71.000000,,2013-10-03 13:42:00,
2013-10-03 09:52:00,64.0,63.0,-100.00,North,359,0.0,0.0,96,0.00,,,0.00,71.000000,,2013-10-03 13:52:00,
2013-10-03 10:42:00,67.0,65.0,-100.00,NNW,330,0.0,0.0,92,0.00,,,0.00,117.000000,,2013-10-03 14:42:00,
2013-10-03 10:52:00,67.0,65.0,-100.00,NNW,330,0.0,0.0,92,0.00,,,0.00,117.000000,,2013-10-03 14:52:00,
2013-10-03 11:01:00,67.0,65.0,-100.00,NNW,330,0.0,0.0,92,0.00,,,0.00,117.000000,,2013-10-03 15:01:00,
2013-10-03 11:02:00,73.0,65.0,-100.00,NNW,335,0.0,0.0,77,0.00,,,0.00,216.000000,,2013-10-03 15:02:00,
2013-10-03 11:22:00,73.0,65.0,-100.00,NNW,335,0.0,0.0,77,0.00,,,0.00,216.000000,,2013-10-03 15:22:00,
2013-10-03 11:33:00,73.0,65.0,-100.00,NNW,335,0.0,0.0,77,0.00,,,0.00,216.000000,,2013-10-03 15:33:00,
2013-10-03 11:43:00,73.0,65.0,-100.00,NNW,335,0.0,0.0,77,0.00,,,0.00,216.000000,,2013-10-03 15:43:00,
2013-10-03 11:54:00,73.0,65.0,-100.00,NNW,335,0.0,0.0,77,0.00,,,0.00,216.000000,,2013-10-03 15:54:00,
2013-10-03 12:02:00,80.0,65.0,-100.00,ESE,105,0.0,0.0,61,0.00,,,0.00,484.000000,,2013-10-03 16:02:00,
2013-10-03 12:23:00,80.0,65.0,-100.00,ESE,105,0.0,0.0,61,0.00,,,0.00,484.000000,,2013-10-03 16:23:00,
2013-10-03 12:33:00,80.0,65.0,-100.00,ESE,105,0.0,0.0,61,0.00,,,0.00,484.000000,,2013-10-03 16:33:00,
2013-10-03 12:43:00,80.0,65.0,-100.00,ESE,105,0.0,0.0,61,0.00,,,0.00,484.000000,,2013-10-03 16:43:00,
2013-10-03 12:53:00,80.0,65.0,-100.00,ESE,105,0.0,0.0,61,0.00,,,0.00,484.000000,,2013-10-03 16:53:00,
2013-10-03 13:02:00,81.0,64.0,-100.00,NW,313,1.0,3.0,57,0.00,,,0.00,628.000000,,2013-10-03 17:02:00,
2013-10-03 13:22:00,81.0,64.0,-100.00,NW,313,1.0,3.0,57,0.00,,,0.00,628.000000,,2013-10-03 17:22:00,
2013-10-03 13:33:00,81.0,64.0,-100.00,NW,313,1.0,3.0,57,0.00,,,0.00,628.000000,,2013-10-03 17:33:00,
2013-10-03 13:42:00,81.0,64.0,-100.00,NW,313,1.0,3.0,57,0.00,,,0.00,628.000000,,2013-10-03 17:42:00,
2013-10-03 13:52:00,81.0,64.0,-100.00,NW,313,1.0,3.0,57,0.00,,,0.00,628.000000,,2013-10-03 17:52:00,
2013-10-03 14:42:00,84.0,64.0,-100.00,SSW,200,2.0,5.0,51,0.00,,,0.00,677.000000,,2013-10-03 18:42:00,
2013-10-03 14:52:00,84.0,64.0,-100.00,SSW,200,2.0,5.0,51,0.00,,,0.00,677.000000,,2013-10-03 18:52:00,
2013-10-03 15:01:00,84.0,64.0,-100.00,SSW,200,2.0,5.0,51,0.00,,,0.00,677.000000,,2013-10-03 19:01:00,
2013-10-03 15:02:00,84.0,60.0,-100.00,SSW,198,2.0,4.0,45,0.00,,,0.00,548.000000,,2013-10-03 19:02:00,
2013-10-03 15:22:00,84.0,60.0,-100.00,SSW,198,2.0,4.0,45,0.00,,,0.00,548.000000,,2013-10-03 19:22:00,
2013-10-03 15:32:00,84.0,60.0,-100.00,SSW,198,2.0,4.0,45,0.00,,,0.00,548.000000,,2013-10-03 19:32:00,
2013-10-03 15:42:00,84.0,60.0,-100.00,SSW,198,2.0,4.0,45,0.00,,,0.00,548.000000,,2013-10-03 19:42:00,
2013-10-03 15:53:00,84.0,60.0,-100.00,SSW,198,2.0,4.0,45,0.00,,,0.00,548.000000,,2013-10-03 19:53:00,
2013-10-03 16:02:00,83.0,61.0,-100.00,SSE,147,2.0,4.0,48,0.00,,,0.00,470.000000,,2013-10-03 20:02:00,
2013-10-03 16:22:00,83.0,61.0,-100.00,SSE,147,2.0,4.0,48,0.00,,,0.00,470.000000,,2013-10-03 20:22:00,
2013-10-03 16:32:00,83.0,61.0,-100.00,SSE,147,2.0,4.0,48,0.00,,,0.00,470.000000,,2013-10-03 20:32:00,
2013-10-03 16:42:00,83.0,61.0,-100.00,SSE,147,2.0,4.0,48,0.00,,,0.00,470.000000,,2013-10-03 20:42:00,
2013-10-03 16:52:00,83.0,61.0,-100.00,SSE,147,2.0,4.0,48,0.00,,,0.00,470.000000,,2013-10-03 20:52:00,
2013-10-03 17:02:00,75.0,62.0,-100.00,South,185,1.0,5.0,63,0.00,,,0.00,230.000000,,2013-10-03 21:02:00,
2013-10-03 17:43:00,75.0,62.0,-100.00,South,185,1.0,5.0,63,0.00,,,0.00,230.000000,,2013-10-03 21:43:00,
2013-10-03 17:54:00,75.0,62.0,-100.00,South,185,1.0,5.0,63,0.00,,,0.00,230.000000,,2013-10-03 21:54:00,
2013-10-03 18:02:00,74.0,64.0,-100.00,South,175,1.0,3.0,70,0.00,,,0.00,69.000000,,2013-10-03 22:02:00,
2013-10-03 18:23:00,74.0,64.0,-100.00,South,175,1.0,3.0,70,0.00,,,0.00,69.000000,,2013-10-03 22:23:00,
2013-10-03 18:33:00,74.0,64.0,-100.00,South,175,1.0,3.0,70,0.00,,,0.00,69.000000,,2013-10-03 22:33:00,
2013-10-03 18:43:00,74.0,64.0,-100.00,South,175,1.0,3.0,70,0.00,,,0.00,69.000000,,2013-10-03 22:43:00,
2013-10-03 18:54:00,74.0,64.0,-100.00,South,175,1.0,3.0,70,0.00,,,0.00,69.000000,,2013-10-03 22:54:00,
2013-10-03 19:02:00,72.0,64.0,-100.00,South,183,1.0,2.0,75,0.00,,,0.00,22.000000,,2013-10-03 23:02:00,
2013-10-03 19:43:00,72.0,64.0,-100.00,South,183,1.0,2.0,75,0.00,,,0.00,22.000000,,2013-10-03 23:43:00,
2013-10-03 19:53:00,72.0,64.0,-100.00,South,183,1.0,2.0,75,0.00,,,0.00,22.000000,,2013-10-03 23:53:00,
2013-10-03 20:02:00,69.0,63.0,-100.00,South,186,1.0,1.0,82,0.00,,,0.00,2.000000,,2013-10-04 00:02:00,
2013-10-03 20:22:00,69.0,63.0,-100.00,South,186,1.0,1.0,82,0.00,,,0.00,2.000000,,2013-10-04 00:22:00,
2013-10-03 20:32:00,69.0,63.0,-100.00,South,186,1.0,1.0,82,0.00,,,0.00,2.000000,,2013-10-04 00:32:00,
2013-10-03 20:42:00,69.0,63.0,-100.00,South,186,1.0,1.0,82,0.00,,,0.00,2.000000,,2013-10-04 00:42:00,
2013-10-03 20:52:00,69.0,63.0,-100.00,South,186,1.0,1.0,82,0.00,,,0.00,2.000000,,2013-10-04 00:52:00,
2013-10-03 21:02:00,66.0,65.0,-100.00,NNW,347,1.0,2.0,97,0.00,,,0.00,0.000000,,2013-10-04 01:02:00,
2013-10-03 21:22:00,66.0,65.0,-100.00,NNW,347,1.0,2.0,97,0.00,,,0.00,0.000000,,2013-10-04 01:22:00,
2013-10-03 21:32:00,66.0,65.0,-100.00,NNW,347,1.0,2.0,97,0.00,,,0.00,0.000000,,2013-10-04 01:32:00,
2013-10-03 21:42:00,66.0,65.0,-100.00,NNW,347,1.0,2.0,97,0.00,,,0.00,0.000000,,2013-10-04 01:42:00,
2013-10-03 21:52:00,66.0,65.0,-100.00,NNW,347,1.0,2.0,97,0.00,,,0.00,0.000000,,2013-10-04 01:52:00,
2013-10-03 22:02:00,65.0,64.0,-100.00,North,352,0.0,0.0,96,0.00,,,0.00,0.000000,,2013-10-04 02:02:00,
2013-10-03 22:22:00,65.0,64.0,-100.00,North,352,0.0,0.0,96,0.00,,,0.00,0.000000,,2013-10-04 02:22:00,
2013-10-03 22:33:00,65.0,64.0,-100.00,North,352,0.0,0.0,96,0.00,,,0.00,0.000000,,2013-10-04 02:33:00,
2013-10-03 22:43:00,65.0,64.0,-100.00,North,352,0.0,0.0,96,0.00,,,0.00,0.000000,,2013-10-04 02:43:00,
2013-10-03 22:52:00,65.0,64.0,-100.00,North,352,0.0,0.0,96,0.00,,,0.00,0.000000,,2013-10-04 02:52:00,
2013-10-03 23:22:00,63.0,63.0,-100.00,NE,37,0.0,2.0,99,0.00,,,0.00,0.000000,,2013-10-04 03:22:00,
2013-10-03 23:34:00,63.0,63.0,-100.00,NE,37,0.0,2.0,99,0.00,,,0.00,0.000000,,2013-10-04 03:34:00,
2013-10-03 23:44:00,63.0,63.0,-100.00,NE,37,0.0,2.0,99,0.00,,,0.00,0.000000,,2013-10-04 03:44:00,